Fargo, ND

6:01 PM CST on November 18, 2019 (GMT -0600)
Hector International

Weather History for KFAR - October, 2019

Change the Weather History Date:

Tuesday, October 15, 2019

  Actual Average Record
Temperature  
Mean Temperature 40 °F 46 °F  
Max Temperature 45 °F 57 °F 83 °F (1958)
Min Temperature 37 °F 36 °F 18 °F (1952)
Degree Days  
Heating Degree Days 24 19  
Month to date heating degree days 239  
Since 1 July heating degree days 509  
Cooling Degree Days 0 0  
Month to date cooling degree days 0  
Year to date cooling degree days 548  
Moisture  
Dew Point 38 °F    
Average Humidity 90    
Maximum Humidity 97    
Minimum Humidity 79    
Precipitation  
Precipitation 0.13 in 0.08 in 1.79 in (1984)
Month to date precipitation 1.18  
Year to date precipitation 19.78  
Snow  
Snow - 0.00 in 1.40 in (1992)
Month to date snowfall 0.1  
Since 1 July snowfall 0.1  
Since 1 September snowfall 0.1  
Snow Depth -    
Sea Level Pressure  
Sea Level Pressure 30.01 in    
Wind  
Wind Speed 7 mph ()    
Max Wind Speed 20 mph    
Max Gust Speed 28 mph    
Visibility 9.6 miles    
Events Rain    
T = Trace of Precipitation, MM = Missing Value Source: Averaged Metar Reports

Daily Weather History Graph

Daily Weather History Graph

Search for Another Location

Airport or City:

Astronomy

Oct. 15, 2019 Rise Set
Actual Time 7:44 AM CDT 6:40 PM CDT
Civil Twilight 7:14 AM CDT 7:10 PM CDT
Nautical Twilight 6:39 AM CDT 7:46 PM CDT
Astronomical Twilight 6:03 AM CDT 8:21 PM CDT
Moon 7:56 PM CDT (10/15) 9:19 AM CDT (10/15)
Length of Visible Light 11h 56m
Length of Day
10h 55m
Full, 97% of the Moon is Illuminated
Oct 15
Full
Oct 21
Last Quarter
Oct 27
New
Nov 4
First Quarter
Nov 12
Full

Hourly Weather History & Observations

Time (CDT) Temp. Windchill Dew Point Humidity Pressure Visibility Wind Dir Wind Speed Gust Speed Precip Events Conditions
12:53 AM 39.0 °F 35.7 °F 36.0 °F 89% 29.90 in 10.0 mi ESE 4.6 mph - N/A   Mostly Cloudy
1:53 AM 37.9 °F - 36.0 °F 93% 29.89 in 10.0 mi Calm Calm - N/A   Scattered Clouds
2:53 AM 37.0 °F 31.6 °F 35.1 °F 93% 29.87 in 10.0 mi East 6.9 mph - N/A   Scattered Clouds
3:53 AM 39.0 °F 35.7 °F 36.0 °F 89% 29.88 in 10.0 mi SSW 4.6 mph - N/A   Overcast
4:53 AM 39.0 °F 36.8 °F 37.0 °F 93% 29.89 in 10.0 mi WNW 3.5 mph - 0.00 in   Overcast
5:53 AM 39.0 °F - 37.9 °F 96% 29.89 in 10.0 mi Calm Calm - 0.00 in   Overcast
6:53 AM 39.9 °F - 37.9 °F 93% 29.91 in 10.0 mi Calm Calm - N/A   Overcast
7:53 AM 39.0 °F - 37.9 °F 96% 29.91 in 10.0 mi Calm Calm - 0.00 in   Overcast
8:53 AM 39.9 °F 37.8 °F 39.0 °F 97% 29.93 in 10.0 mi WNW 3.5 mph - 0.01 in   Overcast
9:53 AM 39.9 °F 35.1 °F 39.0 °F 97% 29.95 in 6.0 mi NNW 6.9 mph - 0.05 in Rain Light Rain
10:07 AM 39.9 °F 35.8 °F 39.0 °F 97% 29.93 in 7.0 mi North 5.8 mph - 0.01 in Rain Light Rain
10:32 AM 39.9 °F 32.9 °F 39.0 °F 97% 29.95 in 8.0 mi North 11.5 mph - 0.03 in Rain Light Rain
10:53 AM 39.9 °F 35.8 °F 37.9 °F 93% 29.99 in 6.0 mi North 5.8 mph - 0.05 in Rain Light Rain
11:00 AM 39.9 °F 35.1 °F 39.0 °F 97% 29.96 in 7.0 mi North 6.9 mph - 0.01 in Rain Light Rain
11:11 AM 39.9 °F 34.5 °F 39.0 °F 97% 29.96 in 10.0 mi North 8.1 mph - 0.02 in Rain Light Rain
11:18 AM 41.0 °F 36.4 °F 39.0 °F 93% 29.96 in 10.0 mi North 6.9 mph - 0.02 in   Overcast
11:28 AM 41.0 °F 37.1 °F 39.9 °F 96% 29.97 in 10.0 mi North 5.8 mph - 0.02 in   Overcast
11:40 AM 41.0 °F 35.8 °F 39.9 °F 96% 29.97 in 10.0 mi North 8.1 mph - 0.02 in   Overcast
11:53 AM 42.1 °F 37.1 °F 39.9 °F 92% 30.00 in 10.0 mi North 8.1 mph - 0.02 in   Overcast
12:05 PM 42.8 °F 38.6 °F 39.2 °F 87% 29.98 in 10.0 mi North 6.9 mph - N/A   Overcast
12:53 PM 42.1 °F 36.1 °F 39.9 °F 92% 30.03 in 10.0 mi North 10.4 mph - N/A   Overcast
1:10 PM 42.1 °F 36.1 °F 39.9 °F 92% 30.01 in 10.0 mi North 10.4 mph - N/A   Overcast
1:53 PM 43.0 °F 36.4 °F 39.9 °F 89% 30.04 in 10.0 mi NNW 12.7 mph - 0.00 in   Overcast
2:17 PM 44.1 °F 37.7 °F 39.9 °F 85% 30.02 in 10.0 mi NNW 12.7 mph - N/A   Overcast
2:36 PM 44.1 °F 37.4 °F 41.0 °F 89% 30.03 in 10.0 mi NNW 13.8 mph - 0.00 in   Overcast
2:53 PM 44.1 °F 37.1 °F 39.9 °F 85% 30.06 in 10.0 mi NNW 15.0 mph - 0.00 in   Overcast
3:39 PM 43.0 °F 34.5 °F 39.0 °F 86% 30.05 in 10.0 mi NNW 19.6 mph - N/A   Overcast
3:53 PM 42.1 °F 33.6 °F 37.9 °F 85% 30.08 in 10.0 mi NNW 18.4 mph 26.5 mph N/A   Overcast
4:01 PM 42.1 °F 33.3 °F 37.9 °F 85% 30.06 in 10.0 mi NNW 19.6 mph - N/A   Overcast
4:53 PM 43.0 °F 36.4 °F 37.0 °F 80% 30.11 in 10.0 mi NNW 12.7 mph - N/A   Overcast
5:53 PM 41.0 °F 31.9 °F 35.1 °F 79% 30.14 in 10.0 mi NNW 19.6 mph 27.6 mph N/A   Overcast
6:53 PM 41.0 °F 33.5 °F 36.0 °F 82% 30.15 in 10.0 mi NW 13.8 mph - N/A   Overcast
7:53 PM 39.9 °F 31.8 °F 35.1 °F 83% 30.17 in 10.0 mi NW 15.0 mph - N/A   Overcast
8:53 PM 39.0 °F 31.4 °F 34.0 °F 82% 30.18 in 10.0 mi NW 12.7 mph - N/A   Overcast
9:53 PM 39.0 °F 31.8 °F 34.0 °F 82% 30.19 in 10.0 mi NW 11.5 mph - N/A   Overcast
10:53 PM 39.0 °F 31.8 °F 34.0 °F 82% 30.20 in 10.0 mi NW 11.5 mph - N/A   Overcast